• Em Portugal
  • Lista de países
  • Para 7 dias
  • Temperatura da água
  • Mapas de satélite
  • Mapa do tempo
  • Widgets de tempo
  • user-avatar
    Iniciar Sessão

    Previsão horária em Homyakova

    Hoje, 16 Novembro, Sexta-feira

    Tempo Temperatura Precipitação Vento Pressão Humidade
    00:00 -4°C° 0 mm 2 m/s 759 mmHg 46%
    01:00 -4°C° 0 mm 2 m/s 760 mmHg 43%
    02:00 -4°C° 0 mm 2 m/s 760 mmHg 41%
    03:00 -4°C° 0 mm 2 m/s 760 mmHg 38%
    04:00 -4°C° 0 mm 2 m/s 760 mmHg 36%
    05:00 -4°C° 0 mm 2 m/s 760 mmHg 34%
    06:00 -4°C° 0 mm 2 m/s 761 mmHg 33%
    07:00 -4°C° 0 mm 2 m/s 761 mmHg 31%
    08:00 -4°C° 0 mm 2 m/s 761 mmHg 30%
    09:00 -3°C° 0 mm 2 m/s 762 mmHg 28%
    10:00 -2°C° 0 mm 2 m/s 762 mmHg 26%
    11:00 -1°C° 0 mm 2 m/s 762 mmHg 24%
    12:00 -1°C° 0 mm 2 m/s 762 mmHg 25%
    13:00 -1°C° 0 mm 2 m/s 762 mmHg 26%
    14:00 +1°C° 0 mm 2 m/s 762 mmHg 26%
    15:00 -1°C° 0 mm 2 m/s 762 mmHg 28%
    16:00 -2°C° 0 mm 2 m/s 762 mmHg 29%
    17:00 -3°C° 0 mm 2 m/s 762 mmHg 31%
    18:00 -3°C° 0 mm 2 m/s 762 mmHg 30%
    19:00 -3°C° 0 mm 2 m/s 762 mmHg 29%
    20:00 -3°C° 0 mm 2 m/s 762 mmHg 28%
    21:00 -4°C° 0 mm 2 m/s 762 mmHg 27%
    22:00 -4°C° 0 mm 2 m/s 762 mmHg 26%
    23:00 -4°C° 0 mm 2 m/s 762 mmHg 25%

    Amanhã, 17 Novembro, Sábado

    Tempo Temperatura Precipitação Vento Pressão Humidade
    00:00 -2°C° 0 mm 1 m/s 762 mmHg 24%
    01:00 -2°C° 0 mm 1 m/s 762 mmHg 23%
    02:00 -2°C° 0 mm 1 m/s 762 mmHg 23%
    03:00 -2°C° 0 mm 1 m/s 761 mmHg 22%
    04:00 -2°C° 0 mm 1 m/s 761 mmHg 22%
    05:00 -2°C° 0 mm 1 m/s 761 mmHg 21%
    06:00 -2°C° 0 mm 1 m/s 761 mmHg 21%
    07:00 -2°C° 0 mm 1 m/s 760 mmHg 21%
    08:00 -2°C° 0 mm 1 m/s 760 mmHg 20%
    09:00 -1°C° 0 mm 1 m/s 760 mmHg 19%
    10:00 0°C° 0 mm 1 m/s 760 mmHg 18%
    11:00 +2°C° 0 mm 1 m/s 759 mmHg 17%
    12:00 +2°C° 0 mm 1 m/s 759 mmHg 18%
    13:00 +2°C° 0 mm 1 m/s 758 mmHg 20%
    14:00 +2°C° 0 mm 1 m/s 757 mmHg 21%
    15:00 -1°C° 0 mm 2 m/s 757 mmHg 23%
    16:00 -2°C° 0 mm 2 m/s 756 mmHg 25%
    17:00 -3°C° 0 mm 2 m/s 755 mmHg 26%
    18:00 -3°C° 0 mm 2 m/s 755 mmHg 28%
    19:00 -4°C° 0 mm 3 m/s 754 mmHg 29%
    20:00 -4°C° 0 mm 3 m/s 753 mmHg 30%
    21:00 -4°C° 0 mm 3 m/s 753 mmHg 32%
    22:00 -4°C° 0 mm 3 m/s 752 mmHg 34%
    23:00 -2°C° 0 mm 3 m/s 751 mmHg 35%

    Depois de amanhã, 18 Novembro, Domingo

    Tempo Temperatura Precipitação Vento Pressão Humidade
    00:00 -3°C° 0 mm 4 m/s 750 mmHg 38%
    01:00 -3°C° 0 mm 4 m/s 750 mmHg 40%
    02:00 -3°C° 0 mm 4 m/s 749 mmHg 43%
    03:00 -3°C° 0 mm 4 m/s 748 mmHg 46%
    04:00 -3°C° 0 mm 4 m/s 747 mmHg 50%
    05:00 -4°C° 0 mm 4 m/s 746 mmHg 53%
    06:00 -4°C° 0.1 mm 4 m/s 746 mmHg 60%
    07:00 -4°C° 0.1 mm 4 m/s 745 mmHg 66%
    08:00 -4°C° 0.1 mm 4 m/s 745 mmHg 72%
    09:00 -2°C° 0.1 mm 3 m/s 745 mmHg 74%
    10:00 -2°C° 0.1 mm 3 m/s 745 mmHg 76%
    11:00 -2°C° 0.1 mm 3 m/s 744 mmHg 78%
    12:00 -2°C° 0 mm 3 m/s 744 mmHg 79%
    13:00 -2°C° 0 mm 3 m/s 744 mmHg 79%
    14:00 -1°C° 0 mm 3 m/s 744 mmHg 80%
    15:00 -2°C° 0 mm 2 m/s 744 mmHg 82%
    16:00 -2°C° 0 mm 2 m/s 744 mmHg 84%
    17:00 -2°C° 0 mm 2 m/s 744 mmHg 86%
    18:00 -2°C° 0 mm 2 m/s 744 mmHg 87%
    19:00 -2°C° 0 mm 2 m/s 744 mmHg 89%
    20:00 -3°C° 0 mm 2 m/s 744 mmHg 90%
    21:00 -1°C° 0 mm 1 m/s 745 mmHg 91%
    22:00 -1°C° 0 mm 1 m/s 745 mmHg 92%
    23:00 -1°C° 0 mm 1 m/s 745 mmHg 92%

    19 Novembro, Segunda-feira

    Tempo Temperatura Precipitação Vento Pressão Humidade
    00:00 -1°C° 0 mm 1 m/s 746 mmHg 92%
    01:00 -1°C° 0 mm 1 m/s 746 mmHg 92%
    02:00 -1°C° 0 mm 1 m/s 746 mmHg 92%
    03:00 -1°C° 0.1 mm 1 m/s 746 mmHg 92%
    04:00 -1°C° 0.1 mm 1 m/s 747 mmHg 91%
    05:00 -1°C° 0.1 mm 1 m/s 747 mmHg 91%
    06:00 -1°C° 0.1 mm 1 m/s 747 mmHg 89%
    07:00 -1°C° 0.1 mm 1 m/s 748 mmHg 87%
    08:00 -3°C° 0.1 mm 2 m/s 748 mmHg 86%
    09:00 -2°C° 0.1 mm 2 m/s 749 mmHg 78%
    10:00 -2°C° 0.1 mm 2 m/s 749 mmHg 71%
    11:00 -1°C° 0.1 mm 2 m/s 750 mmHg 63%
    12:00 -1°C° 0 mm 2 m/s 750 mmHg 60%
    13:00 -1°C° 0 mm 2 m/s 750 mmHg 58%
    14:00 -1°C° 0 mm 2 m/s 751 mmHg 55%
    15:00 -2°C° 0 mm 2 m/s 751 mmHg 57%
    16:00 -3°C° 0 mm 2 m/s 751 mmHg 59%
    17:00 -4°C° 0 mm 3 m/s 752 mmHg 61%
    18:00 -5°C° 0 mm 3 m/s 752 mmHg 60%
    19:00 -5°C° 0 mm 3 m/s 752 mmHg 60%
    20:00 -5°C° 0 mm 3 m/s 753 mmHg 59%
    21:00 -4°C° 0 mm 3 m/s 753 mmHg 59%
    22:00 -4°C° 0 mm 3 m/s 753 mmHg 60%
    23:00 -4°C° 0 mm 3 m/s 754 mmHg 60%

    20 Novembro, Terça-feira

    Tempo Temperatura Precipitação Vento Pressão Humidade
    00:00 -4°C° 0 mm 3 m/s 754 mmHg 60%
    01:00 -4°C° 0 mm 3 m/s 754 mmHg 61%
    02:00 -4°C° 0 mm 3 m/s 754 mmHg 61%
    03:00 -4°C° 0 mm 3 m/s 754 mmHg 61%
    04:00 -4°C° 0 mm 3 m/s 754 mmHg 61%
    05:00 -5°C° 0 mm 3 m/s 754 mmHg 62%
    06:00 -5°C° 0 mm 3 m/s 754 mmHg 60%
    07:00 -4°C° 0 mm 3 m/s 754 mmHg 59%
    08:00 -4°C° 0 mm 3 m/s 754 mmHg 58%
    09:00 -4°C° 0 mm 3 m/s 754 mmHg 55%
    10:00 -2°C° 0 mm 3 m/s 754 mmHg 52%
    11:00 -2°C° 0 mm 4 m/s 754 mmHg 49%
    12:00 -1°C° 0 mm 3 m/s 754 mmHg 52%
    13:00 -1°C° 0 mm 3 m/s 754 mmHg 54%
    14:00 -1°C° 0 mm 3 m/s 753 mmHg 56%
    15:00 -2°C° 0 mm 3 m/s 753 mmHg 60%
    16:00 -2°C° 0 mm 3 m/s 753 mmHg 64%
    17:00 -4°C° 0 mm 3 m/s 753 mmHg 68%
    18:00 -4°C° 0 mm 3 m/s 753 mmHg 70%
    19:00 -4°C° 0 mm 3 m/s 753 mmHg 72%
    20:00 -5°C° 0 mm 3 m/s 753 mmHg 74%
    21:00 -5°C° 0 mm 3 m/s 752 mmHg 75%
    22:00 -5°C° 0 mm 3 m/s 752 mmHg 76%
    23:00 -5°C° 0 mm 3 m/s 752 mmHg 76%

    21 Novembro, Quarta-feira

    Tempo Temperatura Precipitação Vento Pressão Humidade
    00:00 -5°C° 0 mm 3 m/s 752 mmHg 75%
    01:00 -5°C° 0 mm 3 m/s 752 mmHg 74%
    02:00 -5°C° 0 mm 3 m/s 751 mmHg 72%
    03:00 -5°C° 0 mm 3 m/s 751 mmHg 70%
    04:00 -5°C° 0 mm 3 m/s 751 mmHg 67%
    05:00 -5°C° 0 mm 3 m/s 750 mmHg 65%
    06:00 -5°C° 0 mm 3 m/s 750 mmHg 63%
    07:00 -5°C° 0 mm 3 m/s 750 mmHg 61%
    08:00 -5°C° 0 mm 4 m/s 750 mmHg 60%
    09:00 -4°C° 0 mm 4 m/s 749 mmHg 58%
    10:00 -3°C° 0 mm 4 m/s 749 mmHg 57%
    11:00 -2°C° 0 mm 5 m/s 749 mmHg 55%
    12:00 -2°C° 0 mm 4 m/s 748 mmHg 57%
    13:00 -2°C° 0 mm 4 m/s 748 mmHg 58%
    14:00 -2°C° 0 mm 4 m/s 747 mmHg 59%
    15:00 -2°C° 0 mm 5 m/s 747 mmHg 60%
    16:00 -4°C° 0 mm 5 m/s 746 mmHg 61%
    17:00 -4°C° 0 mm 5 m/s 746 mmHg 62%
    18:00 -4°C° 0.1 mm 5 m/s 746 mmHg 63%
    19:00 -4°C° 0.1 mm 5 m/s 745 mmHg 64%
    20:00 -4°C° 0.1 mm 6 m/s 745 mmHg 66%
    21:00 -4°C° 0.5 mm 6 m/s 745 mmHg 71%
    22:00 -4°C° 0.5 mm 6 m/s 745 mmHg 77%
    23:00 -4°C° 0.5 mm 6 m/s 744 mmHg 83%
    Mostrar mais